EW9037 Weather Reports


time (UTC)temp
C
wind
direction
speed
KPH
gust
KPH
rain 1hr
cm
rain 24hr
cm
rain mn
cm
humidity
%
barometer
mb
20211025041604 19 179 6.4 12.9 0.00 0.41 0.00 73 1009.3
20211025040007 19 248 3.2 14.5 0.00 0.41 0.00 74 1009.7
20211025034506 19 235 6.4 16.1 0.00 0.41 0.41 74 1009.3
20211025033007 20 149 4.8 20.9 0.00 0.41 0.41 74 1009.4
20211025031505 20 210 12.9 22.5 0.00 0.41 0.41 73 1009.0
20211025030003 20 163 11.3 20.9 0.00 0.41 0.41 74 1009.3
20211025024503 20 217 6.4 22.5 0.00 0.41 0.41 74 1009.6
20211025023006 20 225 6.4 19.3 0.00 0.41 0.41 74 1009.5
20211025021502 20 219 6.4 22.5 0.00 0.41 0.41 73 1009.5
20211025020129 21 214 11.3 22.5 0.00 0.41 0.41 73 1009.8
20211025014808 21 214 12.9 27.4 0.00 0.41 0.41 74 1009.5
20211025013137 21 193 8.0 24.1 0.00 0.41 0.41 74 1009.7
20211025011629 21 150 11.3 20.9 0.00 0.41 0.41 74 1009.8
20211025010121 21 193 11.3 22.5 0.00 0.41 0.41 76 1009.7
20211025004601 21 179 8.0 24.1 0.00 0.43 0.41 77 1009.6
20211025003100 21 191 3.2 16.1 0.00 0.43 0.41 77 1010.0
20211025001620 21 141 4.8 16.1 0.00 0.43 0.41 78 1010.0
20211025000148 21 172 6.4 17.7 0.00 0.43 0.41 77 1010.1
20211024234635 21 166 4.8 16.1 0.00 0.43 0.41 76 1010.0
20211024233143 22 170 4.8 14.5 0.00 0.43 0.41 75 1010.0
20211024231603 22 203 6.4 12.9 0.00 0.43 0.41 73 1010.0
20211024230135 22 195 8.0 19.3 0.00 0.43 0.41 72 1009.9
20211024224604 23 229 6.4 14.5 0.00 0.53 0.41 70 1010.2
20211024223135 24 212 8.0 16.1 0.00 0.53 0.41 67 1010.2
20211024221603 24 215 9.7 20.9 0.00 0.53 0.41 66 1010.3
20211024220109 25 137 8.0 19.3 0.00 0.53 0.41 66 1010.4
20211024214613 25 187 6.4 16.1 0.00 0.53 0.41 67 1010.3
20211024213130 25 262 9.7 19.3 0.00 0.53 0.41 67 1010.3
20211024211627 24 226 11.3 24.1 0.00 0.53 0.41 68 1010.4
20211024210114 25 224 9.7 24.1 0.00 0.53 0.41 67 1010.6
20211024204613 25 212 9.7 25.7 0.00 0.53 0.41 67 1010.8
20211024203053 25 224 8.0 29.0 0.00 0.53 0.41 67 1011.2
20211024201535 25 212 6.4 19.3 0.00 0.53 0.41 67 1011.2
20211024200122 25 218 9.7 22.5 0.00 0.53 0.41 67 1011.2
20211024194546 25 187 8.0 24.1 0.00 0.53 0.41 70 1011.3
20211024193117 25 155 6.4 22.5 0.00 0.53 0.41 70 1011.7
20211024191612 25 198 11.3 24.1 0.00 0.53 0.41 71 1011.7
20211024190028 25 255 12.9 30.6 0.00 0.53 0.41 72 1011.9
20211024184522 25 183 8.0 19.3 0.00 0.53 0.41 74 1011.9
20211024183027 23 211 9.7 25.7 0.00 0.53 0.41 76 1012.1
20211024181515 23 269 11.3 27.4 0.00 0.53 0.41 76 1012.5
20211024180041 23 246 17.7 32.2 0.00 0.53 0.41 76 1012.5
20211024174513 23 205 16.1 29.0 0.00 0.53 0.41 79 1012.3
20211024173020 22 249 6.4 20.9 0.00 0.53 0.41 84 1012.5
20211024171507 21 253 3.2 14.5 0.03 0.53 0.41 92 1012.8
20211024170123 20 249 3.2 11.3 0.03 0.53 0.41 90 1013.1
20211024164722 19 242 6.4 17.7 0.03 0.53 0.41 90 1013.5
20211024163100 19 153 6.4 16.1 0.03 0.53 0.41 92 1013.6
20211024161721 19 253 8.0 19.3 0.00 0.51 0.38 90 1013.9
20211024160122 18 186 8.0 24.1 0.00 0.51 0.38 90 1013.9
20211024154557 18 233 8.0 22.5 0.00 0.51 0.38 89 1014.2
20211024153149 17 193 4.8 14.5 0.00 0.51 0.38 88 1014.1
20211024151546 17 226 8.0 20.9 0.00 0.51 0.38 88 1014.3
20211024150051 16 207 6.4 17.7 0.03 0.51 0.38 88 1014.3
20211024144541 16 201 6.4 16.1 0.05 0.51 0.38 88 1014.3
20211024143121 16 134 4.8 12.9 0.05 0.51 0.38 88 1014.4
20211024141624 15 211 1.6 12.9 0.05 0.51 0.38 88 1014.6
20211024140029 14 158 1.6 6.4 0.00 0.46 0.33 88 1014.7
20211024134548 14 127 0.0 3.2 0.00 0.46 0.33 88 1014.9
20211024133043 13 165 0.0 3.2 0.00 0.46 0.33 88 1014.8
20211024131539 13 84 0.0 1.6 0.08 0.46 0.33 88 1014.8
20211024130021 13 97 0.0 1.6 0.18 0.46 0.33 88 1014.5
20211024124539 13 91 0.0 1.6 0.18 0.46 0.33 88 1014.3
20211024123017 13 86 0.0 1.6 0.18 0.46 0.33 90 1014.0
20211024121515 13 267 0.0 3.2 0.15 0.36 0.23 93 1014.7
20211024120028 13 95 0.0 1.6 0.15 0.28 0.15 93 1014.1
20211024114535 13 111 0.0 3.2 0.15 0.28 0.15 93 1014.3
20211024113026 13 148 0.0 6.4 0.15 0.28 0.15 93 1014.1
20211024111511 13 169 0.0 6.4 0.08 0.20 0.08 93 1014.0
20211024110008 12 132 0.0 4.8 0.00 0.13 0.00 93 1014.4
20211024104536 12 126 0.0 4.8 0.00 0.13 0.00 93 1014.6
20211024103010 12 108 0.0 3.2 0.00 0.13 0.00 93 1014.6
20211024101504 12 74 0.0 1.6 0.00 0.13 0.00 93 1014.9
20211024100011 12 170 0.0 4.8 0.00 0.13 0.00 93 1015.1
20211024094503 12 169 0.0 0.0 0.00 0.13 0.00 93 1015.0
20211024093003 12 170 0.0 4.8 0.00 0.13 0.00 93 1015.0
20211024091503 12 83 1.6 6.4 0.00 0.13 0.00 93 1014.8
20211024090223 12 119 1.6 8.0 0.00 0.13 0.00 92 1014.9
20211024084744 12 169 0.0 3.2 0.00 0.13 0.00 91 1015.3
20211024083209 12 146 0.0 1.6 0.00 0.13 0.00 91 1015.5
20211024081755 12 113 0.0 1.6 0.00 0.13 0.00 92 1015.7
20211024080244 12 97 0.0 1.6 0.00 0.13 0.00 91 1015.8
20211024074611 12 132 0.0 0.0 0.00 0.13 0.00 91 1016.2
20211024073406 12 132 0.0 0.0 0.00 0.13 0.00 91 1016.3
20211024071630 12 89 0.0 1.6 0.00 0.13 0.00 91 1016.1
20211024070100 12 106 0.0 1.6 0.00 0.13 0.00 91 1016.1
20211024064609 12 76 0.0 1.6 0.00 0.13 0.00 91 1016.1
20211024063117 12 76 0.0 1.6 0.00 0.13 0.00 92 1016.1
20211024061610 12 77 0.0 0.0 0.00 0.13 0.00 92 1016.2
20211024060054 12 77 0.0 3.2 0.00 0.13 0.00 92 1016.3
20211024054607 12 63 0.0 1.6 0.00 0.13 0.00 92 1016.4
20211024053118 12 96 0.0 0.0 0.00 0.13 0.00 92 1016.5
20211024051608 12 97 0.0 0.0 0.00 0.13 0.00 92 1016.3
20211024050040 12 98 0.0 0.0 0.00 0.13 0.00 92 1016.3
20211024044543 12 98 0.0 1.6 0.00 0.13 0.00 92 1016.3
20211024043059 12 97 0.0 0.0 0.00 0.13 0.00 92 1016.2